Terug naar catalogus

STARLINK-35253

ActiefCommunicatieSSO
NORAD 65596·PAYLOAD·🇺🇸 United States

Gelanceerd Sep 13, 2025 vanaf Cape Canaveral Space Force Station

Loading…

Volgende Passages (komende 24 uur)

TLE

VersSource: CelesTrak SupGP

Epoch: Sep 15, 2026, 03:43 UTC

1 65596C 25207E   26258.15534722  .02239100  00000+0  11925+0 0  2580
2 65596  97.2842 320.7874 0001640  80.9245 170.3082 15.14171442    17

Volg STARLINK-35253 in realtime met AllMySat

Download on the App Store